Temperature
23 23 23 23 22 22 22 21 21 21 20 20 20 20 20 20 19 19 19 19 19 19 19 19 19 19 19 19 19 19 19 19 19 19 19 18 18 18 18 18 18 18 18
23 23 23 23 22 22 22 21 21 21 21 21 20 20 20 20 20 19 19 19 19 19 19 19 19 19 19 19 19 19 19 19 19 19 19 18 18 18 18 18 18 18 18
23 23 23 23 23 22 22 22 21 21 21 21 20 20 20 20 19 19 19 19 19 19 19 19 19 19 19 19 19 19 19 19 19 19 19 18 18 18 18 18 18 18 18
24 23 23 23 23 23 22 22 22 21 21 21 21 20 20 20 20 20 19 19 19 19 19 19 19 19 19 19 19 19 19 19 19 19 19 19 18 18 18 18 18 18 18
24 24 23 23 23 23 22 22 22 21 21 21 20 20 20 20 20 20 19 19 19 19 19 19 19 19 19 19 19 19 19 19 19 19 19 18 18 18 18 18 18 18 18
24 24 24 23 23 23 22 22 22 22 21 21 20 20 20 20 20 20 19 19 19 19 19 19 19 19 19 19 19 19 19 19 19 18 18 18 18 18 18 18 18 18 18
24 24 23 23 23 23 22 22 22 21 21 21 21 20 20 20 20 20 19 19 19 19 19 19 19 19 19 19 19 19 19 19 18 18 18 18 18 18 18 18 18 18 18
24 24 24 24 23 23 23 22 22 22 21 21 21 20 20 20 20 20 20 19 19 19 19 19 19 19 19 19 19 19 19 18 18 18 18 18 18 18 18 18 18 17 17
24 24 24 24 24 23 23 23 22 22 22 21 21 20 20 20 20 20 20 19 19 19 19 19 19 19 19 19 19 19 18 18 18 18 18 18 18 18 18 18 17 17 17
24 24 24 24 24 23 23 23 22 22 22 21 21 21 20 20 20 20 20 19 19 19 19 19 19 19 19 19 19 18 18 18 18 18 18 18 18 18 17 17 17 17 17
24 24 24 24 23 23 23 23 22 22 21 21 21 20 20 20 20 20 19 19 19 19 19 19 19 19 19 19 18 18 18 18 18 18 18 18 17 17 17 17 17 17 17
24 24 23 23 23 23 23 22 22 22 21 21 21 20 20 20 20 19 19 19 19 19 19 19 19 19 18 18 18 18 18 18 18 18 18 17 17 17 17 17 17 17 17
23 23 23 23 23 22 23 22 22 22 21 21 21 20 20 20 19 19 19 19 19 19 19 19 18 18 18 18 18 18 18 18 18 18 18 17 17 17 17 16 16 16 16
23 23 23 23 23 23 23 22 22 22 21 21 21 20 20 20 20 19 19 19 19 19 19 18 18 18 18 18 18 18 18 17 17 17 17 17 17 17 17 16 16 16 16
22 22 22 22 22 22 22 22 22 21 21 21 20 20 20 20 20 19 19 19 19 19 18 18 18 18 18 18 18 17 17 17 17 17 17 17 17 16 16 16 16 16 16
21 21 22 22 22 22 22 22 21 21 21 21 20 20 20 20 19 19 19 19 19 18 18 18 18 18 18 18 17 17 17 17 17 17 17 16 16 16 16 16 16 15 15
20 20 21 21 22 22 21 21 21 21 21 21 20 20 20 19 19 19 19 19 18 18 18 18 18 18 17 17 17 17 17 17 17 17 16 16 16 16 16 16 15 15 15
20 20 20 21 21 21 21 21 21 20 20 20 20 19 19 19 19 19 18 18 18 18 18 18 17 17 17 17 17 17 17 16 16 16 16 16 16 16 15 15 15 15 15
20 20 20 20 20 20 20 20 20 19 19 20 19 19 19 19 18 18 18 18 18 18 17 17 17 17 17 17 17 16 16 16 16 16 16 15 15 15 15 15 15 15 15
20 19 19 20 20 19 19 20 19 19 19 19 19 19 19 19 18 18 18 18 17 17 17 17 17 17 17 16 16 16 16 16 16 15 15 15 15 15 15 15 14 14 14
19 19 19 19 19 19 19 19 19 19 19 19 19 18 18 18 18 18 17 17 17 17 17 17 17 17 16 16 16 16 15 15 15 15 15 15 15 14 14 14 14 14 14
19 19 19 18 19 19 18 18 18 18 18 18 18 18 18 18 17 17 17 17 17 16 16 16 16 16 16 16 16 15 15 15 15 15 15 14 14 14 14 14 14 14 13
18 18 18 18 18 18 18 18 18 18 18 17 17 17 17 17 17 17 17 16 16 16 16 16 16 16 16 15 15 15 15 15 14 14 14 14 14 13 13 13 13 13 13
17 17 18 18 18 18 18 18 17 17 17 17 17 17 17 16 16 16 16 16 15 15 15 15 15 15 15 15 15 15 14 14 14 14 14 13 13 13 13 13 13 12 12
17 17 17 17 17 17 17 17 17 17 17 16 16 16 16 16 16 16 15 15 15 15 15 15 15 15 15 15 15 14 14 14 14 13 13 13 13 13 12 12 12 12 12
16 16 16 16 16 16 16 16 16 16 16 16 16 15 15 15 15 15 15 15 15 15 15 15 15 15 14 14 14 14 13 13 13 13 13 13 12 12 12 11 11 11 11
Wind_Speed
11 11 11 11 10 8 8 8 7 6 5 3 3 3 2 1 1 2 3 4 4 4 3 2 2 2 2 2 3 2 2 1 1 2 1 1 0 2 3 3 3 5 7
10 11 10 10 10 10 9 9 8 7 6 4 3 3 2 2 2 1 2 3 4 4 4 3 2 2 2 2 2 2 2 1 2 3 2 1 3 2 3 2 3 4 4
15 13 12 11 10 10 11 10 9 7 7 5 3 2 2 2 1 0 1 1 3 3 3 3 3 2 2 2 2 3 3 2 1 2 3 2 2 2 2 2 3 4 4
13 13 13 12 12 11 10 9 8 8 7 6 5 5 4 3 2 2 2 1 2 3 3 3 3 2 2 2 2 2 2 3 1 1 1 2 3 2 1 2 2 2 3
14 14 14 14 12 11 10 9 8 7 6 6 6 5 4 3 2 2 2 1 1 2 2 3 3 2 2 2 1 1 2 2 2 1 1 1 0 1 2 1 3 2 2
12 12 12 11 10 10 9 9 9 8 7 7 6 6 5 4 4 3 2 2 1 1 1 2 2 2 2 2 2 2 2 2 2 2 2 2 2 2 2 2 2 2 3
12 12 12 12 11 11 11 9 9 8 7 7 6 6 5 5 5 4 4 3 2 1 2 2 2 1 2 2 2 2 1 1 2 2 2 2 2 2 2 2 2 2 2
11 12 13 14 13 13 11 10 10 9 8 8 7 6 6 5 4 4 4 4 3 3 2 2 2 2 2 2 2 2 1 1 1 1 1 1 2 2 2 2 2 1 2
10 11 11 12 12 12 12 12 11 9 9 9 7 5 6 5 5 5 4 3 3 3 2 3 3 2 2 2 2 1 1 1 1 1 1 1 1 1 1 2 3 3 2
9 9 10 11 10 10 10 10 10 10 9 9 8 7 6 6 5 5 4 4 3 3 3 3 3 3 2 2 2 1 1 1 1 1 1 1 1 1 1 1 2 2 3
9 9 8 9 10 9 9 10 9 9 8 8 6 6 5 5 5 4 5 4 4 4 4 3 3 3 3 3 2 2 2 2 2 2 2 2 2 1 1 1 1 2 2
7 8 8 8 7 7 8 8 8 8 8 7 6 5 4 4 4 4 4 4 4 3 3 3 3 3 3 3 3 3 2 3 3 3 2 3 2 2 2 1 2 2 2
6 7 8 8 8 7 7 7 8 8 7 7 6 6 5 4 4 4 4 4 3 3 2 2 3 3 3 3 3 4 3 3 4 3 3 3 2 2 2 2 2 2 2
6 7 7 6 7 6 6 6 7 7 8 7 7 6 6 6 6 5 4 4 3 3 3 3 3 3 3 3 3 3 3 3 3 3 4 4 4 4 4 3 3 2 1
5 6 6 5 5 5 5 6 6 6 7 7 7 7 7 6 5 4 4 3 4 4 3 3 3 3 3 3 3 3 3 3 3 3 3 4 5 5 5 3 3 3 2
3 4 4 5 5 6 6 6 6 6 6 6 6 6 5 5 5 4 4 3 4 4 3 4 4 3 3 4 4 4 3 3 4 4 4 3 3 4 4 4 4 4 4
3 2 3 4 4 6 6 6 5 5 6 6 5 4 5 5 5 5 5 5 4 4 4 3 3 4 5 5 5 5 4 4 4 4 3 3 2 2 2 2 2 2 3
2 2 2 1 1 3 4 4 4 5 5 4 3 3 4 4 4 5 5 5 4 4 4 4 4 4 5 5 6 5 4 3 4 4 4 4 3 2 2 2 1 2 2
2 2 1 2 2 3 4 5 5 4 4 3 3 4 4 4 4 4 5 4 4 4 4 3 4 4 4 5 5 4 2 3 4 4 4 4 3 3 4 3 2 1 3
2 2 1 2 3 2 3 4 4 4 4 4 4 4 4 4 4 4 4 3 3 4 4 3 3 3 3 3 3 3 2 3 3 3 3 3 4 4 5 4 3 3 3
1 2 2 1 1 2 4 3 3 3 5 4 3 2 3 4 4 4 3 3 3 3 3 3 3 3 3 3 3 4 3 3 3 3 3 3 5 5 6 5 4 5 4
1 2 2 1 0 2 4 3 3 4 2 2 3 3 3 3 3 3 2 2 3 3 3 3 3 3 3 3 4 5 5 4 3 4 3 4 5 5 6 5 4 3 2
1 2 3 1 1 0 3 3 4 2 2 2 3 3 3 2 2 3 3 3 3 3 3 3 3 3 3 3 4 4 4 3 3 3 4 4 4 4 4 4 2 2 2
0 1 2 1 1 1 2 4 3 2 2 2 3 3 2 2 1 2 3 3 3 3 3 4 4 4 3 3 2 2 3 2 1 1 1 1 2 2 1 1 1 1 2
1 1 2 2 2 2 2 2 2 2 2 1 2 2 2 2 2 2 2 3 4 5 5 5 5 4 4 5 5 4 3 3 2 1 1 1 0 0 1 1 1 0 1
1 1 1 1 1 1 1 1 1 2 2 1 2 2 2 2 2 2 1 1 2 2 4 5 5 5 5 4 4 4 3 3 4 3 1 1 1 2 2 2 1 1 1
Wind_Direction
172 165 164 161 156 154 152 153 152 158 149 141 142 138 159 170 181 186 177 172 167 158 147 142 146 145 147 164 163 156 153 170 146 109 18 338 271 209 214 209 198 207 208
167 171 168 166 165 165 162 160 163 164 163 162 165 162 158 174 181 187 166 169 161 160 158 149 158 157 149 148 157 151 155 183 149 137 116 352 345 320 246 220 212 221 207
174 174 173 173 170 172 173 171 170 167 167 159 142 126 87 53 62 112 173 183 160 159 152 148 155 156 158 178 189 166 162 183 235 153 152 160 224 288 315 255 231 224 215
177 177 176 176 177 178 174 168 167 166 166 158 154 154 159 172 198 185 179 191 168 161 162 151 156 150 153 170 187 157 155 152 193 252 196 179 168 169 302 323 290 253 227
180 179 179 178 176 173 167 164 159 162 164 163 168 166 171 183 180 152 147 168 170 167 162 152 150 144 151 161 156 136 147 161 165 170 170 147 92 147 164 263 305 313 278
178 178 178 172 171 171 168 164 160 167 169 167 168 170 173 173 161 160 162 174 171 174 156 148 143 146 149 157 166 164 156 163 160 165 162 160 163 186 172 213 257 285 291
173 173 173 173 174 174 172 168 167 172 174 168 171 172 169 167 168 170 173 170 167 189 206 173 158 155 160 162 161 159 167 173 171 184 194 183 197 182 166 170 228 270 289
173 175 178 177 178 177 172 169 171 174 175 176 180 178 172 173 177 175 172 177 189 200 199 184 179 176 175 174 164 164 190 161 175 191 186 194 230 200 182 179 184 265 309
168 169 171 173 175 173 174 175 174 176 179 182 180 181 179 177 176 178 177 184 196 199 196 190 188 186 178 177 169 172 200 179 183 197 190 207 239 229 218 193 181 180 240
159 160 166 169 170 173 174 173 173 179 183 184 185 188 188 185 180 178 183 187 195 198 184 187 190 195 192 186 170 175 193 175 216 204 181 213 238 230 229 206 197 181 190
158 155 157 160 161 164 165 169 173 176 182 187 188 188 189 190 183 187 196 194 193 192 196 197 191 191 191 187 177 195 187 191 225 232 204 227 227 220 227 215 204 199 178
141 151 152 147 154 164 167 170 173 176 184 184 178 181 184 189 192 199 203 196 196 199 201 195 189 187 189 191 193 209 209 206 222 236 225 237 225 223 233 211 216 220 202
127 133 143 154 165 170 167 167 172 178 180 176 175 178 185 194 205 209 202 192 189 199 207 194 194 201 198 198 204 203 209 214 223 228 226 232 211 223 232 225 225 230 224
122 140 147 156 159 161 165 166 173 176 175 175 177 182 192 202 210 209 199 195 192 196 208 208 213 216 215 211 207 200 208 217 226 228 226 223 215 217 213 215 218 212 201
127 140 142 147 149 155 163 169 173 175 173 172 182 192 193 194 197 199 196 196 198 206 207 210 223 226 224 224 205 207 213 215 232 241 237 234 230 226 216 211 200 192 191
114 120 128 136 150 161 167 168 172 174 167 173 188 192 185 186 190 197 196 200 206 208 205 217 224 228 238 231 212 206 216 216 221 235 245 246 244 232 213 196 188 182 189
116 93 124 153 167 168 161 164 174 167 167 177 186 190 186 190 196 200 198 207 210 207 211 218 218 232 244 235 223 214 209 214 221 227 232 246 249 210 201 184 175 218 223
107 113 102 112 106 127 144 149 146 152 156 163 173 186 196 202 202 197 203 208 205 207 214 223 226 234 248 235 224 218 214 221 229 225 219 225 234 221 192 193 201 247 269
136 130 131 128 119 113 129 127 134 144 150 163 176 185 191 196 196 202 211 210 202 214 217 223 224 231 253 237 224 209 210 230 244 240 231 220 224 215 167 170 193 261 297
60 60 61 84 107 130 132 130 151 156 178 195 201 198 192 193 203 213 215 208 203 212 213 224 227 224 242 242 219 187 197 229 251 256 248 224 212 208 185 186 193 215 257
60 72 73 93 151 144 135 145 166 197 213 205 198 202 203 204 206 209 210 206 209 215 219 225 237 230 232 233 206 182 191 214 232 246 248 241 220 218 213 207 212 223 226
59 96 95 56 219 119 126 151 197 219 207 185 189 204 212 214 213 204 212 209 201 213 225 228 246 252 244 230 227 215 215 213 215 234 242 240 227 228 226 225 228 218 203
166 120 118 88 341 167 146 186 226 203 162 176 202 214 217 216 203 194 206 216 213 219 231 230 240 255 256 247 238 224 225 231 228 235 239 241 229 222 227 237 218 179 171
248 163 128 142 269 269 211 213 218 174 165 192 218 214 215 225 223 208 206 209 217 221 226 228 235 246 247 245 244 240 233 243 258 258 252 222 197 194 212 230 204 196 193
292 234 194 205 227 254 236 221 191 159 175 207 227 222 217 214 221 224 221 219 225 215 213 221 218 219 239 243 226 212 215 212 208 159 74 50 76 341 329 328 311 251 190
265 273 239 210 215 221 247 221 187 172 177 222 252 236 223 218 211 217 275 278 246 246 222 218 213 226 233 223 201 205 195 172 149 128 181 221 224 221 223 230 254 251 233
Height
1511 1513 1515 1517 1518 1519 1520 1521 1522 1524 1525 1526 1527 1528 1529 1530 1531 1531 1532 1532 1532 1532 1532 1532 1532 1532 1533 1533 1534 1534 1535 1535 1536 1536 1536 1537 1537 1537 1537 1537 1537 1537 1537
1510 1512 1514 1515 1516 1518 1519 1520 1522 1523 1525 1526 1527 1529 1530 1531 1531 1532 1532 1532 1532 1532 1532 1532 1532 1532 1533 1533 1533 1534 1534 1535 1535 1535 1535 1536 1537 1536 1536 1536 1536 1536 1536
1506 1509 1511 1513 1515 1516 1518 1519 1521 1523 1524 1526 1528 1529 1530 1531 1531 1531 1531 1532 1532 1532 1532 1532 1532 1532 1532 1532 1533 1533 1533 1533 1534 1535 1535 1535 1534 1535 1535 1534 1534 1534 1534
1504 1506 1508 1511 1512 1514 1517 1519 1521 1523 1524 1526 1527 1528 1528 1529 1530 1531 1531 1531 1531 1531 1532 1532 1532 1532 1532 1532 1532 1532 1532 1532 1533 1533 1534 1534 1534 1534 1534 1534 1533 1533 1533
1501 1503 1506 1508 1511 1513 1516 1518 1520 1522 1524 1525 1526 1527 1528 1529 1530 1530 1531 1531 1531 1531 1531 1531 1531 1531 1531 1531 1531 1531 1531 1531 1532 1532 1532 1532 1533 1533 1532 1532 1532 1532 1532
1499 1501 1504 1507 1510 1512 1514 1516 1518 1520 1522 1524 1525 1526 1527 1528 1529 1529 1530 1530 1530 1531 1531 1531 1530 1530 1530 1530 1530 1530 1531 1531 1531 1531 1531 1531 1531 1531 1531 1530 1530 1530 1530
1496 1500 1503 1505 1508 1510 1512 1514 1517 1519 1521 1522 1524 1525 1526 1527 1527 1528 1529 1529 1529 1530 1530 1530 1530 1530 1530 1529 1529 1529 1529 1529 1529 1529 1529 1529 1529 1529 1529 1529 1528 1528 1528
1494 1497 1499 1502 1505 1508 1511 1513 1515 1517 1519 1520 1522 1523 1525 1526 1526 1527 1528 1528 1528 1529 1529 1529 1529 1529 1529 1529 1528 1528 1528 1528 1528 1528 1528 1528 1528 1528 1528 1527 1527 1526 1526
1493 1495 1498 1501 1503 1506 1508 1511 1513 1515 1517 1518 1520 1522 1523 1524 1525 1526 1527 1527 1528 1528 1528 1528 1528 1528 1528 1528 1527 1527 1527 1527 1526 1526 1526 1526 1526 1526 1526 1525 1525 1526 1524
1491 1494 1497 1499 1502 1504 1507 1509 1511 1513 1515 1517 1518 1520 1521 1523 1524 1525 1525 1526 1526 1527 1527 1527 1527 1527 1526 1526 1526 1525 1525 1525 1525 1524 1524 1524 1523 1523 1523 1523 1523 1523 1523
1489 1492 1495 1497 1500 1503 1505 1507 1509 1511 1513 1515 1516 1518 1519 1521 1522 1523 1524 1524 1525 1525 1525 1525 1525 1525 1525 1525 1524 1524 1523 1523 1523 1522 1522 1521 1521 1521 1520 1520 1520 1520 1520
1489 1492 1494 1497 1500 1502 1503 1505 1507 1509 1511 1513 1515 1516 1518 1519 1520 1521 1521 1522 1522 1523 1523 1523 1523 1523 1523 1523 1523 1522 1522 1521 1520 1520 1520 1519 1519 1518 1518 1517 1517 1517 1517
1490 1492 1494 1496 1498 1500 1502 1503 1505 1507 1509 1511 1513 1514 1515 1517 1517 1518 1519 1520 1520 1521 1521 1521 1521 1521 1521 1520 1520 1520 1519 1519 1518 1518 1517 1516 1516 1515 1514 1514 1514 1514 1514
1491 1492 1493 1495 1497 1499 1501 1502 1504 1505 1507 1509 1510 1511 1513 1514 1515 1516 1517 1517 1517 1518 1518 1519 1519 1518 1518 1518 1517 1517 1516 1516 1515 1515 1514 1513 1512 1511 1511 1511 1511 1511 1511
1492 1493 1493 1494 1496 1498 1499 1501 1502 1504 1505 1507 1508 1509 1510 1511 1512 1513 1514 1514 1515 1515 1516 1516 1516 1516 1515 1515 1514 1514 1513 1513 1512 1511 1511 1510 1509 1508 1508 1507 1507 1507 1507
1491 1492 1492 1493 1494 1495 1497 1499 1500 1502 1503 1504 1505 1506 1507 1509 1509 1510 1511 1511 1512 1512 1512 1512 1512 1512 1512 1511 1511 1511 1510 1509 1509 1508 1507 1506 1505 1504 1504 1503 1503 1503 1503
1490 1491 1491 1492 1492 1493 1495 1496 1498 1499 1501 1501 1502 1503 1504 1505 1506 1507 1507 1507 1508 1508 1508 1508 1508 1508 1508 1508 1508 1507 1507 1506 1505 1504 1503 1502 1502 1501 1500 1499 1499 1500 1499
1490 1490 1491 1491 1492 1492 1494 1495 1496 1497 1498 1499 1499 1500 1501 1502 1502 1503 1504 1504 1504 1504 1504 1504 1504 1504 1504 1504 1504 1503 1503 1502 1501 1501 1500 1499 1499 1498 1497 1496 1495 1495 1495
1489 1489 1489 1490 1491 1491 1492 1492 1494 1495 1496 1496 1497 1497 1498 1499 1499 1500 1500 1500 1500 1500 1500 1501 1500 1500 1500 1500 1500 1499 1498 1498 1497 1497 1496 1496 1495 1495 1494 1493 1492 1491 1491
1488 1488 1488 1488 1488 1489 1490 1490 1491 1492 1492 1493 1494 1494 1495 1496 1496 1496 1496 1496 1497 1496 1497 1496 1496 1496 1496 1496 1496 1495 1494 1493 1493 1492 1492 1492 1491 1491 1491 1490 1489 1488 1488
1487 1487 1487 1487 1486 1487 1488 1488 1488 1488 1489 1490 1490 1491 1492 1492 1492 1493 1493 1493 1493 1493 1493 1492 1492 1492 1492 1492 1492 1491 1490 1489 1489 1488 1487 1487 1488 1487 1487 1486 1486 1485 1485
1485 1485 1485 1485 1485 1485 1486 1486 1485 1485 1486 1486 1487 1487 1488 1489 1489 1489 1489 1489 1489 1489 1488 1488 1487 1487 1487 1487 1487 1487 1486 1486 1485 1484 1484 1483 1483 1483 1483 1482 1481 1481 1481
1483 1483 1482 1482 1482 1483 1483 1482 1483 1483 1483 1483 1483 1484 1484 1485 1485 1485 1485 1485 1485 1485 1484 1483 1483 1483 1483 1482 1483 1482 1482 1482 1481 1480 1480 1479 1479 1479 1478 1478 1478 1477 1477
1481 1481 1480 1480 1479 1479 1479 1479 1479 1480 1479 1479 1479 1480 1480 1480 1481 1481 1481 1481 1480 1480 1479 1479 1478 1478 1478 1477 1477 1477 1477 1477 1477 1477 1476 1476 1475 1475 1474 1474 1474 1473 1473
1479 1478 1478 1477 1477 1476 1475 1475 1476 1476 1476 1476 1476 1475 1476 1476 1476 1476 1476 1476 1476 1476 1475 1474 1474 1473 1473 1473 1473 1473 1473 1472 1473 1472 1472 1471 1471 1471 1470 1470 1470 1470 1469
1476 1476 1475 1474 1474 1473 1472 1472 1473 1473 1472 1472 1472 1472 1471 1471 1471 1472 1472 1472 1472 1471 1471 1471 1471 1470 1470 1470 1470 1470 1469 1469 1469 1469 1468 1467 1467 1467 1467 1467 1467 1466 1466